| time (UTC) | temp F | wind direction | speed knots | gust knots | rain 1hr in | rain 24hr in | rain mn in | humidity % | barometer mb |
| 20260508140505 | 53 | 230 | 7.0 | 7.8 | 0.00 | 0.00 | 0.00 | 1018.0 | |
| 20260508133506 | 52 | 247 | 7.8 | 9.6 | 0.00 | 0.00 | 0.00 | 1018.0 | |
| 20260508130505 | 52 | 247 | 7.8 | 9.6 | 0.00 | 0.00 | 0.00 | 1018.0 | |
| 20260508123506 | 52 | 247 | 7.8 | 9.6 | 0.00 | 0.00 | 0.00 | 1018.0 | |
| 20260508120506 | 52 | 264 | 8.7 | 10.4 | 0.00 | 0.00 | 0.00 | 1018.0 | |
| 20260508113506 | 51 | 264 | 8.7 | 10.4 | 0.00 | 0.00 | 0.00 | 1018.0 | |
| 20260508110506 | 51 | 264 | 8.7 | 10.4 | 0.00 | 0.00 | 0.00 | 1017.0 | |
| 20260508103506 | 51 | 264 | 8.7 | 10.4 | 0.00 | 0.00 | 0.00 | 1018.0 | |
| 20260508100506 | 51 | 257 | 7.8 | 9.6 | 0.00 | 0.00 | 0.00 | 1017.0 | |
| 20260508093505 | 51 | 258 | 7.8 | 9.6 | 0.00 | 0.00 | 0.00 | 1017.0 | |
| 20260508090505 | 51 | 258 | 7.8 | 9.6 | 0.00 | 0.00 | 0.00 | 1017.0 | |
| 20260508083505 | 51 | 258 | 7.8 | 9.6 | 0.00 | 0.00 | 0.00 | 1017.0 | |
| 20260508080505 | 50 | 241 | 10.4 | 12.2 | 0.00 | 0.00 | 0.00 | 1017.0 | |
| 20260508073505 | 49 | 231 | 10.4 | 13.0 | 0.00 | 0.00 | 0.00 | 1016.0 | |
| 20260508070505 | 49 | 231 | 10.4 | 13.0 | 0.00 | 0.00 | 0.00 | 1016.0 | |
| 20260508063505 | 49 | 228 | 10.4 | 13.0 | 0.00 | 0.00 | 0.00 | 1015.0 | |
| 20260508060505 | 49 | 228 | 10.4 | 13.0 | 0.00 | 0.00 | 0.00 | 1015.0 | |
| 20260508053506 | 49 | 230 | 11.3 | 14.8 | 0.00 | 0.00 | 0.00 | 1014.0 | |
| 20260508050506 | 49 | 230 | 11.3 | 14.8 | 0.00 | 0.00 | 0.00 | 1014.0 | |
| 20260508043506 | 49 | 220 | 11.3 | 14.8 | 0.00 | 0.00 | 0.00 | 1014.0 | |
| 20260508040506 | 49 | 220 | 11.3 | 14.8 | 0.00 | 0.00 | 0.00 | 1014.0 | |
| 20260508033506 | 49 | 220 | 11.3 | 14.8 | 0.00 | 0.00 | 0.00 | 1014.0 | |
| 20260508030506 | 49 | 207 | 12.2 | 16.5 | 0.00 | 0.00 | 0.00 | 1014.0 | |
| 20260508023506 | 49 | 207 | 13.0 | 16.5 | 0.00 | 0.00 | 0.00 | 1014.0 | |
| 20260508020506 | 49 | 207 | 13.0 | 16.5 | 0.00 | 0.00 | 0.00 | 1014.0 | |
| 20260508013505 | 49 | 203 | 12.2 | 15.6 | 0.00 | 0.00 | 0.00 | 1015.0 | |
| 20260508010505 | 49 | 203 | 12.2 | 15.6 | 0.00 | 0.00 | 0.00 | 1014.0 | |
| 20260508003505 | 50 | 200 | 11.3 | 14.8 | 0.00 | 0.00 | 0.00 | 1014.0 | |
| 20260508000505 | 49 | 201 | 11.3 | 14.8 | 0.00 | 0.00 | 0.00 | 1014.0 | |
| 20260507233505 | 50 | 196 | 11.3 | 13.9 | 0.00 | 0.00 | 0.00 | 1014.0 | |
| 20260507230505 | 50 | 196 | 11.3 | 13.9 | 0.00 | 0.00 | 0.00 | 1014.0 | |
| 20260507223506 | 50 | 198 | 10.4 | 13.0 | 0.00 | 0.00 | 0.00 | 1014.0 | |
| 20260507220506 | 50 | 198 | 10.4 | 13.0 | 0.00 | 0.00 | 0.00 | 1014.0 | |
| 20260507213506 | 51 | 199 | 10.4 | 13.0 | 0.00 | 0.00 | 0.00 | 1014.0 | |
| 20260507210506 | 51 | 199 | 10.4 | 13.0 | 0.00 | 0.00 | 0.00 | 1014.0 | |
| 20260507203506 | 52 | 200 | 10.4 | 13.0 | 0.00 | 0.00 | 0.00 | 1014.0 | |
| 20260507200506 | 52 | 200 | 10.4 | 13.0 | 0.00 | 0.00 | 0.00 | 1014.0 | |
| 20260507193506 | 53 | 204 | 11.3 | 13.0 | 0.00 | 0.00 | 0.00 | 1014.0 | |
| 20260507190506 | 53 | 204 | 11.3 | 13.0 | 0.00 | 0.00 | 0.00 | 1013.0 | |
| 20260507183506 | 53 | 201 | 11.3 | 13.0 | 0.00 | 0.00 | 0.00 | 1013.0 | |
| 20260507180506 | 53 | 201 | 11.3 | 13.0 | 0.00 | 0.00 | 0.00 | 1013.0 | |
| 20260507173505 | 54 | 214 | 11.3 | 13.0 | 0.00 | 0.00 | 0.00 | 1013.0 | |
| 20260507170506 | 54 | 214 | 11.3 | 13.0 | 0.00 | 0.00 | 0.00 | 1013.0 | |
| 20260507163505 | 53 | 210 | 7.8 | 9.6 | 0.00 | 0.00 | 0.00 | 1013.0 | |
| 20260507160505 | 53 | 210 | 7.8 | 9.6 | 0.00 | 0.00 | 0.00 | 1013.0 | |
| 20260507153505 | 53 | 210 | 8.7 | 10.4 | 0.00 | 0.00 | 0.00 | 1014.0 | |
| 20260507150505 | 53 | 210 | 8.7 | 10.4 | 0.00 | 0.00 | 0.00 | 1013.0 | |
| 20260507143505 | 53 | 206 | 8.7 | 10.4 | 0.00 | 0.00 | 0.00 | 1014.0 |